Tracking 18951 objects as of 21-Jan-2018
HD Live streaming from Space Station
objects crossing your sky now

FENGYUN 1C DEB

Track FENGYUN 1C DEB now!
10-day predictions


NORAD ID: 33650
Int'l Code: 1999-025DEK
Perigee: 846.1 km
Apogee: 1,085.2 km
Inclination: 99.1 °
Period: 104.2 minutes
Semi major axis: 7336 km
RCS: 0.0036 m2 (small)
Launch date: May 10, 1999
Source: People's Republic of China (PRC)
Launch site: Taiyaun Space Center, China (TSC)

Note: This is SATELLITE DEBRIS
aabbcc
Your satellite tracking list
Your tracking list is empty




NASA's NSSDC Master Catalog

Two Line Element Set (TLE):
1 33650U 99025DEK 18021.13921864  .00000315  00000-0  30483-3 0  9998
2 33650  99.0923 269.6142 0162935 270.1793  88.0692 13.81520326494018
Source of the keplerian elements: AFSPC